Regional Weather Roundup
Issued by NWS

Home | Current Version | Previous Version | Graphics & Text | Print | Product List | Glossary On
Versions: 1 2 3 4 5 6 7 8 9 10 11 12 13 14 15 16 17 18 19 20 21 22 23 24 25 26 27 28 29 30 31 32 33 34 35 36 37 38 39 40 41 42 43 44 45 46 47 48 49 50
118
ASUS44 KJAN 301010
RWRMS

MISSISSIPPI HOURLY WEATHER ROUNDUP
NATIONAL WEATHER SERVICE JACKSON MS
500 AM CDT WED JUL 30 2014

NOTE: "FAIR: INDICATES FEW OR NO CLOUDS BELOW 12,000 FEET WITH NO
SIGNIFICANT WEATHER AND/OR OBSTRUCTIONS TO VISIBILITY.

MSZ001>002-007>008-010>013-018>021-025>028-034>036-301100-
NORTHWEST MISSISSIPPI

CITY           SKY/WX    TMP DP  RH WIND       PRES   REMARKS
CLARKSDALE     FAIR      61  61 100 CALM      30.10S
CLEVELAND      FAIR      61  61  99 CALM      30.09R
GREENWOOD      PTCLDY    60  58  92 CALM      30.09R
GREENVILLE     CLEAR     62  60  93 CALM      30.08S
GRENADA        FAIR      55  55 100 CALM      30.10R
OLIVE BRANCH   CLEAR     59  59 100 CALM      30.10S
OXFORD         FAIR      55  54  94 CALM      30.12R
TUNICA         PTSUNNY   61  61 100 CALM      30.10S
$$

MSZ003>006-009-014>017-022>024-029>033-037>039-301100-
NORTHEAST MISSISSIPPI

CITY           SKY/WX    TMP DP  RH WIND       PRES   REMARKS
BELMONT        FAIR      55  55  98 CALM      30.09S
COLUMBUS AFB   PTCLDY    59  58  96 CALM      30.08S
CORINTH        FAIR      55  54  94 CALM      30.10R
GOLDN TRIANGLE PTCLDY    57  52  82 CALM      30.09R
STARKVILLE     FAIR      55  54  94 CALM      30.09R
TUPELO         PTCLDY    59  55  87 NE3       30.09S
$$

MSZ040-058-301100-
CENTRAL MISSISSIPPI

CITY           SKY/WX    TMP DP  RH WIND       PRES   REMARKS
JACKSON INTL   CLEAR     61  58  90 CALM      30.08S
JACKSON HAWKNS CLEAR     63  58  83 CALM      30.09S
MERIDIAN KEY   PTCLDY    57  55  93 N3        30.08R
MERIDIAN NAS   CLEAR     57  56  96 CALM      30.08R
RAYMOND        FAIR      59  54  82 CALM      30.09R
VICKSBURG      CLEAR     59  57  93 CALM      30.09R
$$

MSZ059>079-301100-
SOUTH MISSISSIPPI

CITY           SKY/WX    TMP DP  RH WIND       PRES   REMARKS
BROOKHAVEN     FAIR      61  61 100 CALM      30.10S
COLUMBIA       FAIR      59  59 100 CALM      30.06S
HATTIESBURG    CLEAR     65  61  87 CALM      30.07S
MCCOMB         CLEAR     66  59  78 N3        30.07S
NATCHEZ        CLEAR     64  61  88 E3        30.08S
PINE BELT      CLEAR     61  55  82 N3        30.08S
$$

MSZ080>082-301100-
COASTAL MISSISSIPPI

CITY           SKY/WX    TMP DP  RH WIND       PRES   REMARKS
BILOXI         PTCLDY    71  62  74 NE9       30.03S
PASCAGOULA     CLEAR     67  61  81 N6        30.03S
GULFPORT       PTCLDY    73  61  65 N7        30.03R
$$



USA.gov is the U.S. government's official web portal to all federal, state and local government web resources and services.